{"data":{"norad_id":53273,"epoch":"2026-05-25T03:17:05.587008Z","epoch_age_seconds":60360,"freshness":"FRESH","line1":"1 53273U 22086AH  26145.13687022  .00000166  00000+0  28517-4 0  9994","line2":"2 53273  53.2140 200.9367 0001142  88.2810 271.8313 15.08836381212732","mean_motion":15.08836381,"eccentricity":0.0001142,"inclination_deg":53.214,"raan_deg":200.9367,"arg_perigee_deg":88.281,"mean_anomaly_deg":271.8313,"bstar":2.8517e-5,"rev_number":21273,"period_min":95.437783588279,"perigee_km":538.96442761773,"apogee_km":540.5444740251,"semimajor_km":6917.8914508214,"source":"CELESTRAK","updated_at":"2026-05-25T13:38:17.366287Z"}}